Terminal Aerodrome Forecast
Issued by NWS St Louis, MO

Home | Current Version | Previous Version | Text Only | Print | Product List | Glossary On
Versions: 1 2 3 4 5 6 7 8 9 10 11 12 13 14 15 16 17 18 19 20 21 22 23 24
735
FTUS43 KLSX 192111 AAB
TAFCOU
TAF AMD
KCOU 192111Z 1921/2018 18015G25KT 5SM -SHRA BR VCTS BKN010 OVC025CB
     FM200000 19013G23KT 3SM -SHRA BR OVC012
     FM201400 19014G24KT 5SM -SHRA OVC025=

USA.gov is the U.S. government's official web portal to all federal, state and local government web resources and services.